GEFSMW_850_meantemp_060.txt.gz
Temperature
12 10 9 8 7 7 6 6 6 5 5 4 4 3 3 2 1 1 0 -0 -1 -2 -2 -3 -4 -5 -5 -6 -7 -8 -8 -9 -9 -10 -10 -9 -9 -9 -9 -9 -10 -9 -10
11 10 9 8 8 8 7 7 6 5 5 4 4 3 3 2 1 1 0 -1 -1 -2 -3 -3 -4 -5 -6 -7 -8 -9 -9 -9 -10 -10 -11 -11 -10 -9 -10 -10 -10 -10 -10
13 12 11 10 9 8 8 7 7 6 5 4 4 3 2 2 1 1 0 -1 -2 -2 -3 -4 -4 -5 -6 -7 -8 -9 -9 -10 -10 -10 -11 -11 -11 -11 -10 -10 -10 -10 -10
14 13 12 11 11 10 9 8 7 6 5 4 4 3 2 2 1 1 -0 -1 -2 -2 -3 -4 -5 -6 -7 -8 -8 -9 -10 -10 -10 -10 -11 -11 -11 -12 -12 -11 -10 -11 -10
15 14 14 13 12 11 10 9 7 6 5 4 3 3 2 2 1 0 -0 -1 -2 -3 -3 -4 -5 -6 -7 -8 -9 -9 -10 -10 -11 -11 -11 -11 -11 -11 -12 -12 -11 -11 -10
17 16 14 13 12 11 10 9 8 6 5 4 3 3 2 2 1 0 -0 -1 -2 -3 -4 -4 -5 -6 -7 -8 -9 -9 -10 -10 -11 -11 -11 -11 -11 -12 -12 -12 -12 -12 -11
18 17 15 14 13 12 11 10 8 7 5 4 3 3 2 2 1 0 -0 -1 -2 -2 -3 -4 -5 -6 -7 -8 -9 -9 -10 -10 -10 -10 -11 -11 -11 -11 -12 -12 -12 -12 -11
18 17 16 15 14 13 12 10 9 7 6 5 4 3 2 1 1 0 -1 -1 -2 -3 -4 -5 -5 -6 -7 -8 -9 -9 -10 -10 -10 -10 -10 -10 -11 -11 -11 -12 -12 -12 -12
18 18 17 16 15 14 12 11 10 8 6 5 4 3 2 1 1 -0 -1 -1 -2 -3 -4 -5 -6 -6 -7 -8 -9 -9 -9 -10 -10 -10 -10 -10 -10 -11 -11 -12 -12 -12 -12
18 18 17 16 15 14 12 11 9 8 6 5 4 3 2 1 1 -0 -1 -1 -2 -3 -4 -5 -6 -6 -7 -8 -8 -9 -9 -9 -9 -9 -10 -10 -10 -11 -11 -11 -12 -12 -12
19 18 17 16 15 13 12 10 9 7 6 4 3 2 2 1 0 -0 -1 -2 -2 -3 -4 -5 -5 -6 -7 -8 -8 -9 -9 -9 -9 -9 -9 -10 -10 -10 -11 -11 -11 -11 -11
18 18 17 16 14 13 12 10 9 7 6 4 3 2 2 1 0 -0 -1 -2 -2 -3 -4 -5 -5 -6 -7 -8 -8 -8 -9 -9 -9 -9 -9 -9 -10 -10 -11 -11 -11 -11 -11
18 17 17 16 15 14 12 11 9 7 6 4 3 2 1 1 0 -0 -1 -2 -2 -3 -4 -5 -5 -6 -7 -7 -8 -8 -8 -8 -9 -9 -9 -10 -10 -10 -11 -11 -11 -11 -11
18 17 16 16 15 14 12 11 9 7 6 4 3 2 2 1 0 -1 -1 -2 -2 -3 -4 -4 -5 -6 -7 -7 -8 -8 -8 -8 -8 -9 -9 -10 -10 -10 -10 -11 -10 -10 -11
17 17 16 16 15 13 12 11 9 7 6 4 3 2 1 1 -0 -1 -1 -2 -3 -3 -4 -4 -5 -6 -6 -7 -7 -8 -8 -8 -8 -9 -9 -10 -10 -10 -10 -10 -10 -10 -10
17 17 16 16 15 14 13 12 10 8 6 4 3 2 1 0 -0 -1 -2 -2 -3 -3 -4 -4 -5 -5 -6 -7 -8 -9 -8 -8 -8 -9 -9 -10 -10 -10 -10 -10 -10 -10 -10
17 17 16 16 15 14 13 12 11 9 6 4 3 2 1 0 -0 -1 -2 -2 -3 -3 -4 -4 -5 -5 -6 -7 -8 -8 -8 -8 -9 -9 -9 -10 -10 -10 -10 -10 -10 -11 -11
17 17 16 15 15 14 13 12 10 8 6 5 3 2 1 0 -1 -1 -2 -2 -3 -3 -4 -4 -5 -5 -6 -7 -8 -8 -8 -9 -9 -9 -9 -10 -10 -10 -9 -9 -10 -11 -11
16 15 15 14 14 13 13 11 10 8 6 5 3 2 1 0 -1 -1 -1 -2 -3 -3 -4 -4 -5 -5 -6 -6 -7 -9 -9 -9 -9 -9 -9 -10 -10 -10 -9 -10 -10 -11 -11
15 15 14 14 14 13 12 11 10 8 7 6 4 3 1 0 -0 -1 -2 -2 -3 -3 -4 -4 -5 -6 -6 -6 -7 -9 -9 -9 -9 -9 -9 -10 -10 -9 -10 -10 -11 -11 -11
14 14 14 13 13 12 11 10 9 9 8 6 4 2 1 0 -1 -1 -2 -2 -3 -3 -4 -4 -5 -6 -6 -6 -7 -8 -9 -9 -9 -9 -10 -10 -10 -10 -10 -11 -11 -11 -11
13 13 13 13 12 12 11 10 9 9 7 5 3 2 1 -0 -1 -1 -2 -2 -3 -3 -4 -4 -5 -6 -6 -7 -7 -8 -9 -9 -9 -10 -10 -10 -10 -10 -11 -11 -11 -11 -11
13 12 12 12 12 11 10 9 9 7 6 4 3 2 1 -0 -1 -1 -2 -2 -3 -3 -4 -4 -5 -5 -6 -7 -8 -8 -9 -9 -10 -10 -10 -10 -10 -10 -10 -11 -11 -11 -11
11 11 11 11 11 11 10 9 8 6 5 4 3 2 1 -0 -1 -1 -2 -2 -3 -3 -4 -4 -5 -5 -6 -7 -8 -8 -9 -9 -9 -9 -9 -9 -9 -10 -10 -10 -11 -11 -12
11 11 10 10 10 10 9 8 7 5 4 3 2 1 0 -0 -1 -1 -2 -2 -2 -3 -4 -4 -5 -6 -6 -7 -8 -9 -9 -9 -10 -9 -9 -9 -9 -9 -10 -10 -10 -11 -11
10 10 9 9 9 9 9 8 6 5 3 2 1 1 0 -1 -1 -1 -2 -2 -3 -3 -4 -4 -5 -6 -6 -8 -9 -9 -9 -9 -9 -9 -9 -9 -9 -10 -10 -11 -11 -11 -11

GEFSMW_850_meantemp_066.txt.gz
Temperature
17 15 14 13 12 11 10 9 8 8 7 6 6 5 5 5 4 4 3 3 2 2 1 0 -0 -1 -2 -2 -3 -4 -4 -4 -6 -7 -6 -5 -5 -6 -7 -7 -7 -8 -8
17 16 15 14 13 12 11 10 10 9 8 7 6 6 5 5 4 3 3 3 2 2 1 0 -0 -1 -2 -2 -3 -4 -5 -5 -6 -8 -9 -9 -8 -8 -8 -8 -8 -8 -8
18 17 16 15 14 14 13 13 12 10 9 8 6 5 5 4 4 4 4 3 2 2 1 0 -0 -1 -2 -2 -3 -4 -5 -6 -6 -8 -9 -10 -10 -10 -9 -8 -9 -9 -9
19 18 17 17 16 16 15 14 13 12 10 8 7 6 6 6 6 5 4 3 2 2 1 0 -0 -1 -2 -3 -3 -4 -5 -6 -6 -7 -8 -9 -10 -11 -11 -10 -9 -10 -10
20 19 19 18 18 17 16 15 13 12 11 10 8 7 6 6 5 4 3 3 2 2 1 0 -0 -1 -2 -3 -4 -4 -5 -6 -7 -8 -8 -9 -10 -10 -12 -11 -10 -10 -10
20 20 19 19 18 17 16 15 14 13 12 11 10 8 7 6 5 4 3 3 2 2 1 0 -1 -1 -2 -3 -4 -5 -5 -6 -7 -8 -8 -9 -10 -10 -11 -12 -11 -11 -10
20 20 20 19 19 18 17 17 16 15 14 12 11 10 8 7 5 5 4 3 2 2 1 0 -1 -1 -2 -3 -4 -4 -5 -6 -7 -7 -8 -9 -9 -10 -10 -11 -11 -11 -11
20 20 20 19 19 18 18 17 16 16 15 13 12 11 9 7 6 5 4 3 2 2 1 -0 -1 -1 -2 -3 -4 -4 -5 -6 -7 -7 -8 -9 -9 -9 -10 -10 -11 -12 -11
20 20 19 19 19 18 18 17 17 16 15 14 13 11 10 8 7 5 4 3 2 1 1 -0 -1 -1 -2 -3 -4 -4 -5 -6 -7 -7 -8 -8 -8 -9 -9 -10 -10 -11 -12
19 19 19 19 18 18 18 17 16 16 15 14 13 12 10 9 7 5 4 3 2 1 1 -0 -1 -1 -2 -3 -4 -4 -5 -6 -6 -7 -8 -8 -8 -9 -9 -9 -10 -11 -11
18 18 18 18 18 17 17 17 16 16 15 14 13 12 10 9 7 5 4 3 2 1 0 -0 -1 -1 -2 -3 -4 -4 -5 -6 -6 -7 -8 -8 -8 -9 -9 -9 -10 -10 -11
17 17 17 17 17 17 17 17 16 16 15 14 13 12 10 9 7 6 4 3 2 1 0 -0 -1 -1 -2 -3 -4 -4 -5 -6 -6 -7 -8 -8 -8 -9 -9 -9 -10 -10 -11
16 16 16 16 16 16 16 16 16 15 15 13 13 11 10 9 8 6 4 3 2 1 0 -1 -1 -2 -2 -3 -3 -4 -5 -6 -6 -7 -8 -8 -9 -9 -9 -9 -10 -10 -10
15 15 15 15 15 15 15 15 15 15 14 13 12 12 11 9 8 6 4 3 2 1 0 -1 -1 -2 -2 -3 -4 -4 -5 -6 -6 -7 -8 -8 -9 -9 -9 -9 -9 -9 -9
15 15 15 15 15 15 15 15 15 14 14 13 12 12 10 9 7 5 4 2 1 1 -0 -1 -1 -2 -2 -3 -4 -4 -5 -6 -7 -7 -8 -8 -9 -9 -9 -9 -9 -9 -9
14 14 14 14 14 14 14 14 14 14 13 13 12 11 10 8 6 5 3 2 1 0 -1 -1 -2 -2 -2 -3 -4 -5 -6 -6 -7 -7 -8 -8 -9 -9 -9 -9 -9 -9 -9
13 13 13 13 13 13 13 13 13 13 13 12 12 11 9 8 6 4 2 1 0 -0 -1 -1 -2 -2 -2 -3 -4 -5 -6 -7 -7 -8 -8 -8 -9 -9 -9 -9 -9 -9 -9
12 12 12 12 12 12 13 12 12 12 12 12 11 10 9 7 5 3 2 1 0 -0 -1 -1 -2 -2 -3 -3 -4 -5 -6 -7 -7 -8 -8 -8 -9 -9 -9 -9 -9 -9 -9
11 11 11 11 11 12 11 11 11 11 11 11 10 9 8 6 5 3 2 1 0 -0 -1 -1 -2 -2 -3 -3 -4 -5 -6 -6 -7 -7 -8 -8 -9 -9 -9 -9 -9 -9 -9
10 10 10 10 10 11 10 10 10 10 10 10 9 8 7 6 4 3 2 0 -0 -1 -1 -2 -2 -3 -3 -4 -4 -5 -6 -6 -7 -7 -8 -8 -9 -9 -9 -9 -9 -9 -9
9 9 9 9 10 9 9 9 9 9 9 8 8 7 6 5 4 2 1 -0 -1 -1 -2 -2 -2 -3 -3 -4 -4 -5 -6 -6 -7 -8 -8 -8 -9 -9 -9 -9 -9 -10 -10
9 8 8 8 9 9 8 8 8 8 7 7 7 6 5 4 2 1 0 -1 -1 -2 -2 -2 -3 -3 -4 -4 -4 -5 -6 -7 -8 -8 -8 -8 -9 -9 -9 -9 -10 -10 -10
8 7 7 7 8 8 7 7 7 7 6 6 6 6 4 3 1 -0 -1 -2 -2 -2 -3 -3 -3 -3 -4 -4 -4 -5 -6 -7 -8 -8 -8 -9 -9 -9 -9 -9 -10 -10 -10
6 6 6 6 7 7 6 6 6 5 5 6 5 5 3 2 0 -1 -2 -2 -2 -3 -3 -3 -3 -3 -4 -4 -4 -5 -6 -7 -7 -8 -8 -9 -9 -9 -9 -9 -9 -10 -10
6 5 5 5 5 5 6 5 5 4 4 5 4 3 2 0 -1 -2 -2 -2 -2 -2 -2 -2 -3 -3 -4 -4 -5 -5 -6 -7 -7 -8 -8 -8 -9 -9 -9 -9 -9 -10 -10
5 5 4 4 4 4 4 4 4 3 3 4 3 2 1 -1 -2 -3 -3 -4 -3 -3 -3 -3 -3 -4 -4 -4 -5 -5 -6 -7 -8 -9 -8 -8 -9 -9 -9 -9 -9 -10 -10

GEFSMW_850_meantemp_072.txt.gz
Temperature
16 15 16 16 16 15 14 14 13 12 11 10 9 9 8 8 7 7 7 6 6 5 5 4 4 3 3 2 1 1 -0 -1 -2 -3 -4 -3 -3 -2 -2 -3 -3 -4 -5
15 14 15 16 16 16 15 15 14 13 12 11 11 10 9 8 8 8 7 7 6 5 5 4 4 3 3 2 1 1 -0 -1 -2 -4 -5 -4 -4 -4 -4 -4 -4 -4 -5
15 14 14 16 17 16 16 16 15 14 13 12 11 10 9 8 8 8 8 7 6 5 5 4 4 3 3 2 1 1 -0 -1 -2 -3 -4 -5 -4 -4 -5 -5 -4 -5 -5
15 15 15 16 17 17 17 16 15 15 14 13 12 11 11 10 11 10 9 8 7 6 5 5 4 3 3 2 1 1 -0 -1 -2 -4 -4 -5 -6 -7 -6 -6 -5 -5 -6
16 16 17 17 18 17 17 16 16 15 15 14 13 12 11 11 10 9 9 9 8 7 6 5 4 3 3 2 1 1 -0 -1 -1 -3 -4 -5 -6 -7 -8 -7 -6 -6 -6
17 17 18 18 18 18 17 17 16 16 15 15 14 13 13 12 11 10 9 9 8 8 7 6 5 4 3 2 2 1 -0 -1 -1 -2 -4 -5 -6 -7 -7 -7 -7 -6 -6
16 17 17 18 18 18 18 17 17 17 16 15 15 15 14 13 12 11 9 9 9 9 8 6 5 4 3 2 2 1 0 -1 -1 -2 -3 -4 -5 -6 -7 -8 -7 -7 -7
16 16 17 17 17 17 17 17 17 17 17 16 16 15 15 13 13 12 10 9 9 9 8 6 5 4 3 2 2 1 0 -1 -1 -2 -3 -4 -4 -6 -7 -8 -8 -8 -8
15 15 15 16 16 16 16 16 16 16 16 16 15 15 14 14 14 12 10 9 9 8 7 6 5 4 3 2 1 1 0 -1 -1 -2 -3 -4 -4 -5 -6 -7 -8 -9 -9
15 14 14 15 15 15 16 16 16 15 15 15 14 14 14 13 13 12 11 10 9 7 6 5 4 3 2 2 1 0 -0 -1 -1 -2 -3 -3 -4 -5 -6 -7 -8 -9 -10
14 13 14 14 14 15 15 15 15 15 14 14 14 14 14 13 12 12 11 10 8 7 6 5 4 3 2 1 0 -0 -0 -1 -2 -2 -3 -3 -4 -5 -6 -7 -8 -9 -9
13 13 13 13 14 14 14 14 14 14 14 14 13 13 13 12 12 12 11 10 8 7 5 4 3 2 1 0 -0 -1 -1 -2 -2 -3 -3 -4 -4 -5 -6 -7 -8 -9 -9
12 12 12 13 13 13 13 13 13 13 13 13 13 13 13 12 12 11 10 9 7 6 5 3 2 1 0 -0 -0 -1 -2 -2 -2 -3 -3 -4 -5 -5 -6 -7 -8 -8 -9
12 12 11 12 12 12 12 12 12 12 12 12 12 12 12 11 11 10 9 8 7 5 4 2 1 0 -0 -1 -1 -2 -2 -2 -2 -3 -3 -4 -5 -5 -6 -7 -8 -8 -9
11 11 11 11 11 11 11 11 11 11 11 11 11 11 11 10 10 9 8 7 6 4 2 1 0 -0 -1 -1 -1 -2 -3 -3 -3 -3 -4 -4 -4 -5 -6 -7 -7 -8 -8
11 10 10 10 10 10 9 9 10 10 10 10 10 10 10 9 9 9 8 7 5 4 2 1 -0 -1 -1 -1 -2 -3 -3 -3 -3 -3 -4 -4 -5 -5 -6 -7 -7 -8 -8
10 9 9 9 8 8 8 8 9 9 9 9 9 9 9 8 8 8 7 6 5 3 2 1 -1 -1 -1 -2 -3 -4 -4 -4 -4 -4 -4 -5 -5 -6 -6 -7 -7 -8 -8
9 8 8 8 7 7 8 8 8 8 8 8 8 8 8 7 7 7 6 5 3 2 1 -0 -1 -2 -2 -3 -4 -4 -4 -4 -4 -4 -5 -5 -5 -6 -6 -7 -7 -8 -8
8 7 7 7 7 7 7 7 7 7 7 7 7 7 6 6 6 5 5 4 2 1 -0 -1 -2 -3 -3 -3 -4 -4 -4 -5 -5 -5 -5 -5 -5 -6 -7 -8 -8 -8 -8
7 6 6 6 6 6 6 6 6 6 6 5 5 5 5 5 5 4 4 3 1 -0 -2 -3 -3 -4 -4 -4 -4 -4 -5 -5 -5 -5 -5 -5 -5 -6 -7 -8 -8 -8 -8
6 6 6 6 6 6 5 5 5 4 4 4 4 4 4 4 4 3 3 2 1 -1 -2 -4 -4 -5 -5 -4 -4 -4 -5 -5 -5 -5 -5 -5 -5 -6 -7 -8 -8 -8 -8
6 5 5 5 5 5 5 4 3 3 3 3 3 3 3 3 3 2 2 1 -1 -2 -3 -5 -5 -6 -5 -5 -5 -5 -5 -5 -5 -5 -5 -5 -6 -7 -7 -8 -8 -8 -8
5 5 4 4 5 4 3 3 3 2 2 2 2 2 2 2 1 1 1 -0 -2 -3 -4 -5 -6 -6 -6 -5 -5 -5 -5 -5 -5 -5 -5 -6 -7 -7 -7 -8 -8 -8 -9
4 4 4 3 4 3 3 2 2 1 1 1 1 1 1 1 1 0 -0 -1 -2 -3 -4 -5 -6 -6 -6 -6 -5 -5 -5 -5 -5 -6 -6 -7 -7 -8 -8 -8 -8 -8 -9
4 3 3 3 2 2 2 2 1 0 0 -0 -0 -0 -0 -0 -0 -0 -1 -1 -2 -3 -4 -5 -6 -7 -6 -5 -5 -5 -5 -5 -5 -6 -6 -7 -7 -8 -8 -8 -8 -9 -9
3 3 3 2 2 1 1 1 0 -0 -1 -1 -1 -1 -1 -1 -1 -1 -1 -1 -2 -3 -4 -6 -7 -7 -6 -6 -6 -5 -5 -5 -5 -6 -7 -7 -7 -8 -8 -8 -8 -9 -9

GEFSMW_850_meantemp_078.txt.gz
Temperature
20 20 19 18 16 15 13 13 12 12 11 11 10 10 11 10 9 9 9 9 9 9 9 8 8 7 7 7 6 6 5 5 4 3 3 3 3 3 3 3 3 2 2
19 19 19 17 16 15 14 13 12 12 12 12 12 12 11 11 10 9 9 9 9 9 9 9 8 8 7 7 6 6 5 5 4 4 3 2 2 3 3 2 2 2 1
18 18 18 17 16 15 14 13 12 12 12 12 11 10 9 9 9 9 10 10 9 9 9 9 8 8 7 7 7 6 5 5 4 3 3 2 2 1 0 0 1 1 1
17 17 17 16 16 15 14 13 12 12 11 11 10 10 10 11 12 11 11 10 9 9 9 8 8 8 7 7 6 6 5 4 4 3 2 2 2 1 -0 -1 -0 -0 -0
17 17 16 16 15 15 14 13 12 12 11 10 10 10 10 11 10 9 9 9 8 8 8 7 7 7 6 6 6 5 5 4 4 3 3 1 1 -0 -1 -1 -0 -1 -1
17 16 16 16 15 15 14 13 13 12 11 10 10 9 9 9 8 8 8 8 7 7 7 7 6 6 6 5 5 4 3 3 3 3 2 2 1 1 0 -1 -1 -1 -1
16 15 15 15 15 14 14 14 13 12 11 10 9 9 9 8 8 8 7 7 7 7 7 6 6 6 5 4 3 3 2 2 2 2 2 2 1 1 1 -0 -1 -2 -2
15 15 14 14 14 14 13 13 13 12 11 11 10 10 9 8 8 8 7 7 7 7 6 6 5 5 4 4 3 2 1 1 1 1 1 1 1 0 -0 -1 -1 -3 -4
15 14 14 14 13 13 13 13 13 12 12 11 11 10 9 9 9 8 7 7 7 6 5 5 5 4 4 3 2 1 1 0 -0 -0 -0 -0 -0 -1 -1 -1 -2 -3 -5
14 14 13 13 13 13 13 12 12 12 12 11 11 10 10 9 9 8 8 8 7 6 6 5 4 4 3 3 2 1 0 -0 -1 -1 -2 -2 -1 -1 -2 -2 -2 -3 -4
14 13 13 13 13 12 12 12 12 12 11 11 11 10 10 9 9 8 8 8 7 7 6 5 4 4 3 3 2 1 0 -1 -2 -2 -3 -3 -2 -2 -2 -3 -3 -3 -4
13 13 13 12 12 12 12 11 11 11 11 10 10 10 10 9 9 9 8 8 8 7 6 5 4 4 3 2 2 1 -0 -1 -2 -2 -3 -3 -3 -3 -3 -3 -3 -4 -4
13 13 12 12 11 11 11 11 10 10 10 9 9 9 9 9 8 8 8 8 7 7 6 6 5 4 3 2 1 0 -1 -1 -2 -2 -3 -3 -4 -4 -4 -4 -4 -4 -5
13 12 12 11 11 10 10 10 10 9 9 9 8 8 8 8 8 7 7 7 7 6 6 6 5 4 3 2 1 0 -1 -2 -2 -3 -4 -4 -4 -4 -4 -4 -4 -4 -5
12 12 11 10 10 10 9 9 9 8 8 8 8 7 7 7 7 7 6 6 6 6 5 5 4 4 2 2 1 -1 -1 -2 -3 -3 -4 -4 -5 -4 -4 -5 -5 -5 -5
12 11 10 10 9 9 8 8 8 7 7 7 7 7 6 6 6 6 6 5 5 5 5 4 4 3 2 1 -0 -2 -2 -3 -3 -4 -4 -5 -5 -5 -5 -5 -5 -5 -6
10 10 9 9 8 8 7 7 7 7 6 6 6 6 6 5 5 5 5 5 4 4 4 3 3 2 2 1 -1 -3 -3 -4 -4 -5 -5 -6 -6 -6 -5 -5 -5 -6 -6
9 9 8 8 7 7 7 6 6 6 6 6 5 5 4 4 4 3 3 3 3 2 2 2 2 1 1 -0 -2 -3 -4 -4 -5 -5 -6 -6 -6 -6 -5 -5 -5 -5 -5
8 8 7 7 7 6 6 5 5 5 5 5 4 4 3 3 2 2 2 2 1 1 1 1 1 0 0 -1 -2 -3 -4 -5 -5 -6 -6 -6 -6 -6 -6 -6 -6 -5 -5
7 7 7 6 6 6 5 5 5 4 4 3 3 2 2 2 1 1 1 1 0 0 0 -0 -0 -1 -1 -1 -3 -4 -5 -5 -5 -6 -6 -6 -6 -6 -6 -6 -6 -6 -5
6 6 6 5 5 5 4 4 4 3 3 2 2 2 1 1 1 0 0 -0 -0 -1 -1 -1 -1 -1 -2 -2 -3 -4 -5 -5 -6 -6 -6 -6 -6 -6 -6 -6 -6 -6 -6
6 5 5 5 5 4 4 3 3 2 2 1 1 1 0 0 -0 -1 -1 -1 -1 -1 -1 -2 -2 -2 -2 -3 -4 -4 -5 -5 -6 -6 -6 -6 -6 -6 -6 -6 -6 -6 -7
5 4 4 4 4 3 3 2 2 1 1 0 0 -0 -0 -1 -1 -1 -1 -2 -2 -2 -2 -2 -3 -3 -3 -4 -4 -5 -5 -6 -6 -6 -6 -6 -6 -6 -6 -6 -6 -6 -7
4 4 3 3 3 2 2 1 1 0 -0 -1 -1 -1 -1 -1 -1 -2 -2 -2 -2 -3 -3 -3 -3 -3 -4 -4 -5 -5 -6 -6 -6 -6 -6 -6 -6 -6 -6 -6 -6 -6 -7
3 3 2 2 2 1 1 0 -0 -1 -1 -1 -1 -1 -2 -2 -2 -2 -3 -3 -3 -3 -3 -3 -4 -4 -4 -4 -5 -6 -6 -6 -6 -6 -6 -6 -6 -6 -6 -6 -6 -7 -7
2 2 2 1 1 0 -0 -0 -1 -1 -2 -2 -2 -2 -2 -3 -3 -3 -3 -3 -3 -3 -3 -4 -4 -4 -4 -5 -5 -6 -6 -6 -6 -7 -6 -6 -6 -6 -6 -6 -6 -7 -7

GEFSMW_850_meantemp_084.txt.gz
Temperature
19 19 19 19 18 18 17 16 15 14 13 12 11 11 11 10 10 10 10 9 9 9 8 8 8 7 7 7 7 7 6 6 6 5 5 6 6 6 7 7 7 7 6
19 19 19 18 18 17 17 16 15 15 14 13 13 12 11 11 10 10 9 9 9 8 8 7 7 7 7 7 6 6 6 6 5 5 4 4 5 7 7 7 7 7 6
17 18 18 17 17 17 16 16 15 15 14 13 12 11 11 10 10 10 10 9 9 8 8 7 7 7 6 6 6 6 5 5 5 4 4 3 4 5 6 6 6 6 6
17 17 17 17 16 16 15 15 14 14 13 13 12 11 11 11 11 10 10 9 9 8 8 7 7 6 6 6 6 5 5 4 4 4 4 3 3 3 4 4 4 4 5
16 16 16 16 16 15 15 14 14 13 13 12 11 11 11 10 10 9 9 9 8 8 7 7 6 6 6 6 5 5 4 4 4 3 3 3 2 2 1 1 2 3 3
15 15 15 15 15 14 14 14 13 13 12 12 11 11 10 10 9 9 9 8 8 8 7 7 6 6 5 5 5 5 4 4 3 3 2 2 1 1 1 -0 0 1 2
15 15 14 14 14 14 14 13 13 12 12 11 11 11 10 10 9 9 8 8 8 7 7 7 6 6 6 5 5 4 4 4 3 3 2 2 2 1 1 -0 -0 -0 0
14 14 13 13 13 13 13 13 13 12 12 11 11 10 10 10 9 9 8 8 8 8 7 7 6 6 5 5 4 4 4 3 3 3 3 2 2 1 0 -0 -1 -2 -2
14 13 13 13 13 13 12 12 12 12 11 11 10 10 10 9 9 9 8 8 8 7 7 6 6 5 5 5 4 4 4 3 3 3 3 2 2 1 0 -1 -1 -2 -3
13 13 13 12 12 12 12 11 11 11 11 10 10 9 9 9 8 8 8 7 7 7 6 6 5 5 5 4 4 4 3 3 3 3 2 2 1 1 -0 -1 -2 -3 -3
13 13 12 12 12 11 11 11 10 10 10 10 9 9 8 8 8 7 7 7 7 7 6 6 5 5 5 4 4 3 3 3 3 2 2 2 1 1 -0 -1 -2 -3 -4
12 12 12 11 11 10 10 10 9 9 9 9 8 8 8 7 7 7 7 7 6 6 6 5 5 5 4 4 3 3 3 2 2 2 2 1 1 0 -0 -1 -2 -3 -4
12 11 11 10 10 10 9 9 9 8 8 8 7 7 7 7 6 6 6 6 6 5 5 5 4 4 4 3 3 3 2 2 2 1 1 1 0 0 -0 -1 -2 -3 -4
11 10 10 10 9 9 9 8 8 7 7 7 7 6 6 6 6 6 5 5 5 4 4 4 4 3 3 3 3 2 2 1 1 1 0 0 -0 -0 -1 -1 -2 -3 -4
10 9 9 9 8 8 8 7 7 7 6 6 6 6 6 5 5 5 4 4 4 3 3 3 3 2 2 2 2 1 1 1 0 0 -0 -0 -1 -1 -2 -2 -3 -4 -5
9 9 8 8 7 7 7 6 6 6 5 5 5 5 5 5 4 4 3 3 3 2 2 2 1 1 1 1 1 0 -0 -0 -1 -1 -1 -1 -2 -2 -3 -4 -4 -5 -5
8 8 7 7 7 6 6 5 5 5 5 5 4 4 4 4 3 3 2 2 1 1 1 1 0 0 0 0 0 -0 -1 -1 -1 -1 -1 -2 -2 -3 -3 -4 -4 -4 -5
7 7 6 6 6 5 5 5 4 4 4 4 4 3 3 2 2 1 1 1 0 0 -0 -0 -0 -1 -0 -0 -1 -1 -1 -2 -2 -2 -2 -2 -3 -3 -4 -4 -5 -5 -5
6 6 6 5 5 5 4 4 4 3 3 3 3 2 1 1 1 0 0 -0 -0 -1 -1 -1 -1 -1 -1 -1 -1 -2 -2 -2 -2 -2 -2 -3 -3 -3 -4 -5 -5 -6 -6
5 5 5 4 4 4 3 3 3 3 2 2 1 1 0 0 -0 -0 -1 -1 -1 -1 -1 -2 -2 -2 -2 -2 -2 -2 -3 -3 -3 -3 -3 -3 -4 -4 -5 -5 -6 -6 -6
5 4 4 4 3 3 3 2 2 2 1 1 0 0 -0 -1 -1 -1 -1 -2 -2 -2 -2 -2 -2 -2 -2 -2 -3 -3 -3 -4 -4 -4 -4 -4 -4 -5 -5 -5 -6 -6 -6
4 4 3 3 3 2 2 1 1 1 0 -0 -0 -1 -1 -1 -2 -2 -2 -2 -3 -3 -3 -3 -3 -3 -3 -3 -3 -3 -4 -4 -4 -4 -4 -4 -5 -5 -5 -5 -6 -6 -6
3 3 2 2 2 2 1 1 0 0 -1 -1 -1 -2 -2 -2 -2 -3 -3 -3 -3 -3 -4 -4 -4 -3 -3 -3 -3 -4 -4 -4 -4 -4 -5 -5 -5 -5 -5 -5 -6 -6 -6
2 2 2 1 1 1 1 0 -0 -1 -2 -2 -2 -2 -3 -3 -3 -3 -3 -4 -4 -4 -4 -4 -4 -4 -4 -4 -4 -4 -4 -4 -4 -5 -5 -5 -5 -5 -6 -6 -6 -6 -6
2 1 1 1 0 0 -0 -1 -1 -2 -3 -3 -3 -3 -3 -3 -4 -4 -4 -4 -4 -4 -4 -4 -4 -4 -4 -4 -4 -4 -4 -4 -5 -5 -5 -5 -5 -6 -6 -6 -6 -6 -6
1 1 0 -0 -0 -1 -1 -1 -2 -3 -3 -4 -4 -4 -4 -4 -4 -5 -5 -4 -5 -4 -4 -4 -4 -5 -5 -5 -5 -5 -5 -5 -5 -5 -5 -6 -6 -6 -6 -6 -6 -6 -6